Simultaneous Nadir Overpasses (SNOs) Predictions

Prediction of SNOs between NOAA-19 and TERRA Satellite Orbit:

Table of predicted SNOs for the next 14.0 days since TLE Epoch: 2/18/2017
Index Date (NOAA-19) Time (NOAA-19) Lat,Lon (NOAA-19) SZA (NOAA-19 ) Date (TERRA) Time (TERRA) Lat,Lon (TERRA) SZA (TERRA ) Distance(km) Time Diff (sec)
1 02/19/2017 09:16:36 75.64, 48.59 86.75 02/19/2017 09:17:41 75.52, 51.83 86.72 90.69 65
2 02/19/2017 10:07:20 -74.97,-142.00 93.90 02/19/2017 10:07:20 -74.95,-142.08 93.91 2.80 0
3 02/21/2017 14:50:22 -75.41, 145.95 94.28 02/21/2017 14:51:31 -75.30, 147.78 94.33 52.82 69
4 02/21/2017 15:41:16 74.97, -45.43 85.31 02/21/2017 15:41:03 74.97, -45.46 85.31 1.10 13
5 02/23/2017 20:24:10 75.03,-116.26 84.56 02/23/2017 20:25:20 75.03,-116.38 84.57 3.48 70
6 02/23/2017 21:15:07 -75.00, 51.09 95.48 02/23/2017 21:14:49 -74.97, 51.10 95.51 2.63 18
7 02/26/2017 01:58:01 -75.08, -19.82 96.22 02/26/2017 01:59:06 -75.05, -19.77 96.24 3.16 65
8 02/26/2017 02:49:03 74.96, 147.77 83.66 02/26/2017 02:48:33 74.97, 147.65 83.66 3.64 30
9 02/28/2017 07:31:58 75.07, 76.77 82.95 02/28/2017 07:32:50 75.07, 76.82 82.94 1.85 52
10 02/28/2017 08:22:53 -74.99,-115.72 97.15 02/28/2017 08:22:19 -75.01,-115.70 97.14 1.67 34
11 03/02/2017 13:05:47 -75.08, 173.34 97.90 03/02/2017 13:06:37 -75.07, 173.39 97.90 2.00 50
